Regional Weather Roundup
Issued by NWS

Home | Current Version | Previous Version | Text Only | Print | Product List | Glossary On
Versions: 1 2 3 4 5 6 7 8 9 10 11 12 13 14 15 16 17 18 19 20 21 22 23 24 25 26 27 28 29 30 31 32 33 34 35 36 37 38 39 40 41 42 43 44 45 46 47 48 49 50
000
ASCA44 KEWX 171420
RWRMX

LATIN AMERICA AND CARIBBEAN REGIONAL WEATHER ROUNDUP
NATIONAL WEATHER SERVICE AUSTIN/SAN ANTONIO TX
900 AM CDT THU AUG 17 2017

NOTE: "FAIR" INDICATED FEW OR NO CLOUDS BELOW 12,000 FEET WITH NO
SIGNIFICANT WEATHER AND/OR OBSTRUCTIONS TO VISIBILITY.

BAJA CALIFORNIA

CITY           SKY/WX    TMP DP  RH WIND       PRES   REMARKS
LORETO         PTSUNNY   88  81  79 CALM      29.86R HX 105
LA PAZ         PTSUNNY   77  68  73 S9        29.91
MEXICALI       SUNNY     79  45  29 W3        29.87
S.J. DEL CABO  MOSUNNY   81  66  61 CALM      29.91R
TIJUANA        PTCLDY    63  59  88 CALM      30.02S

NORTHWESTERN MEXICO

CITY           SKY/WX    TMP DP  RH WIND       PRES   REMARKS
CULIACAN       RAIN      75  73  94 N6        29.94
DURANGO        PTSUNNY   63  63 100 CALM      30.33
GUAYMAS        PTSUNNY   82  75  78 CALM      29.84
HERMOSILLO     MOSUNNY   86  70  58 E6        29.93  HX  90
CD. JUAREZ     MOSUNNY   73  57  56 CALM      30.14
OBREGON        PTSUNNY   81  66  61 SE8       29.88

NORTHEASTERN MEXICO

CITY           SKY/WX    TMP DP  RH WIND       PRES   REMARKS
CHIHUAHUA      PTSUNNY   70  63  78 S3        30.19
MATAMOROS      MOSUNNY   84  79  84 SE7       30.00  HX  96
MONCLOVA         N/A    N/A N/A N/A MISG        N/A
MONTERREY      PTSUNNY   79  70  73 NE12      30.00R
NUEVO LAREDO   MOSUNNY   82  73  74 SE15      29.98
PIEDRAS NEGRAS MOSUNNY   82  72  69 SE7       30.01R
REYNOSA        MOSUNNY   82  73  74 SE9       29.99
SALTILLO       PTSUNNY   70  61  73 CALM      30.24R
TORREON        PTSUNNY   77  63  61 CALM      30.14R
CD. VICTORIA   SUNNY     81  68  65 S12       30.01

WESTERN MEXICO

CITY           SKY/WX    TMP DP  RH WIND       PRES   REMARKS
AGUASCALIENTES MOSUNNY   64  61  88 CALM      30.36  FOG
COLIMA         PTSUNNY   73  70  88 CALM      30.07R
DEL BAJIO      PTSUNNY   63  59  88 CALM      30.39R
GUADALAJARA    PTSUNNY   66  61  82 CALM      30.27
MANZANILLO     MOSUNNY   81  72  74 N7        29.92R
MAZATLAN       CLOUDY    75  73  94 E5        29.93S
P. VALLARTA    CLOUDY    79  79 100 CALM      29.93S
URUAPAN        CLOUDY    61  61 100 CALM      30.27R
ZACATECAS      PTSUNNY   61  52  72 SW10      30.37R

CENTRAL MEXICO

CITY           SKY/WX    TMP DP  RH WIND       PRES   REMARKS
CUERNAVACA       N/A    N/A N/A N/A MISG        N/A
MEXICO CITY    MOSUNNY   64  50  59 NE5       30.43R
MORELIA        CLOUDY    59  59 100 CALM      30.34  FOG
POZA RICA      PTSUNNY   79  75  89 CALM      30.05S
PUEBLA         MOSUNNY   59  55  88 N6        30.44R
QUERETARO      CLOUDY    61  59  94 NW5       30.41R FOG
S. LUIS POTOSI MOSUNNY   63  54  72 CALM      30.34R
TAMPICO        MOSUNNY   82  79  89 CALM      30.00R HX  93
TOLUCA         PTSUNNY   52  48  87 CALM      30.48S

SOUTHERN MEXICO

CITY           SKY/WX    TMP DP  RH WIND       PRES   REMARKS
ACAPULCO       PTSUNNY   81  73  78 CALM      29.92R
B. DE HUATULCO CLOUDY   N/A N/A N/A CALM      29.94
OAXACA         CLOUDY    66  59  77 N10       30.26F
P. ESCONDIDO   PTSUNNY   77  70  78 NE10      29.98S
VERACRUZ       CLOUDY    77  75  94 N5        30.00R
ZIHUATANEJO    MOSUNNY   77  72  83 CALM      29.95R

YUCATAN PENINSULA

CITY           SKY/WX    TMP DP  RH WIND       PRES   REMARKS
CAMPECHE       PTSUNNY   79  79 100 E12       29.99R
CANCUN         MOSUNNY   84  79  84 NE5       30.03S HX  96
CHETUMAL       MOSUNNY   86  77  74 E6        29.99  HX  97
CD. DEL CARMEN MOSUNNY  N/A N/A N/A E12       29.99
COZUMEL        MOSUNNY   86  79  79 E6        30.01R HX  99
MERIDA         MOSUNNY   82  77  83 E8        30.03S HX  91
MINATITLAN     MOSUNNY   84  73  70 CALM      29.96  HX  91
TAPACHULA      PTSUNNY   77  75  94 CALM      29.86F
TUX. GUTIERREZ MOSUNNY   77  72  83 CALM      30.01R
VILLAHERMOSA   MOSUNNY   81  73  78 E15       29.98S

CENTRAL AMERICA

CITY           SKY/WX    TMP DP  RH WIND       PRES   REMARKS
BELIZE CITY    PTSUNNY   86  79  79 E8        29.97R HX  99
MANAGUA        MOSUNNY   84  75  74 E9        29.89R HX  92

CARIBBEAN

CITY           SKY/WX    TMP DP  RH WIND       PRES   REMARKS
ARUBA          PTSUNNY   84  79  84 SE10      29.86F HX  96
CURACAO        MOSUNNY   91  73  55 S12       29.89S HX 100
KINGSTON       MOSUNNY   86  75  70 S6        29.92S HX  95
NASSAU         PTSUNNY   90  77  66 E6        30.09R HX 102
SAN JUAN       LGT RAIN  75  75 100 E8        29.98F
SANTO DOMINGO  PTSUNNY   82  73  74 N12       29.94S
ST. CROIX      MOSUNNY   84  79  84 E18       30.00R HX  96
ST. KITTS      MOSUNNY   86  79  79 E14       30.00S HX  99
ST. MAARTEN    PTSUNNY   86  79  79 E15       30.00  HX  99
ST. THOMAS     PTSUNNY   81  77  89 E9        29.99S

$$




USA.gov is the U.S. government's official web portal to all federal, state and local government web resources and services.